Grizzly Air Cargo 5382


PAFA
Fairbanks International Airport
Fairbanks, Alaska, US
PAGA
Edward G Pitka Sr. Airport
Galena, Alaska, US

Activity Log

Date Flight Route Aircraft Duration
No Flights Yet

Route Details

Aircraft Information
Primary: Saab 340AF
Backup: Not Available
Route Data
Distance: 234nm
Sched. Duration: 1h 50m
Avg. Duration: 0h 00m (-150m)
Times Flown: 0
Recm'd Route: FAI J122 GAL
Planned Altitude: 24,000ft
Origin Wx: PAFA 060953Z 21007KT 10SM FEW035 SCT050 BKN120 M05/M14 A2961 RMK AO2 SLP035 T10501139 $
Dest. Wx: PAGA 060956Z 23013KT 5SM -SN FEW022 SCT047 OVC070 M12/M15 A2959 RMK AO2 PK WND 24027/0909 SNB07 SLP024 P0000 T11221150 FZRANO
Notes:

Financial History
Total Freight: 0lbs
Average Load: 0lbs/flt
Fuel Used: 0lbs
Avg. Fuel Used: 0lbs/flt
Fuel Expense: $0
Avg. Fuel Expense: $0
Avg. Fuel Cost: $0/lbs
Total Gross Income: $0
Pilot Pay: $0
Total Expenses: $0
Total Revenue: $0
Average Revenue: $0